Location: *
(38.8181°S, 103.0319°E)
Time: 01:34:10
(UTC+00:00)

Daily predictions for brighter satellites

Satellite Brightness Start Highest point End
(mag) Time Altitude Azimuth Time Altitude Azimuth Time Altitude Azimuth
Meteor 1-15 Rocket 4.5 10:14:56 10° N 10:20:45 58° E 10:26:34 10° SSE
SJ-6F 4.4 10:16:52 10° SSE 10:21:02 84° ENE 10:25:08 10° N
Cosmos 1992 Rocket 4.3 10:19:13 10° N 10:24:15 50° ENE 10:29:20 10° SSE
Abrixas rocket 4.3 10:26:56 10° SW 10:29:17 17° S 10:31:37 10° SE
Cosmos 2369 Rocket 2.5 10:25:50 10° N 10:31:12 49° ENE 10:36:39 10° SSE
Cosmos 2084 4.2 10:27:03 10° N 10:31:39 46° ENE 10:36:23 10° SE
NOSS 3-1 (C) 4.3 10:31:28 10° SSW 10:37:05 28° SE 10:42:12 10° E
Cosmos 1812 Rocket 4.0 10:36:14 10° NNE 10:40:25 41° E 10:44:38 10° SSE
Meteor 2-5 Rocket 4.4 10:37:03 10° S 10:42:28 35° ESE 10:47:44 10° NE
COBE Rocket 4.0 10:38:32 10° SSE 10:43:49 74° E 10:48:59 10° N
Meteor 1-29 3.1 10:41:09 10° NNE 10:44:29 50° ESE 10:47:52 10° S
CSL-04 Rocket 3.9 10:41:02 10° S 10:46:31 76° WSW 10:51:51 10° NNW
Cosmos 2228 3.3 10:42:47 10° NNW 10:47:03 70° W 10:51:23 10° S
ERBS 4.1 10:49:24 10° S 10:51:56 18° SSE 10:52:54 16° SE
Cosmos 968 Rocket 4.2 10:50:30 10° S 10:55:02 30° ESE 10:59:32 10° NE
Ariane Rocket 4.3 10:50:41 10° S 10:55:29 41° WSW 11:00:15 10° NW
SMAP 3.6 10:56:28 10° SSE 11:00:52 38° E 11:05:14 10° NNE
USA 215 3.4 10:56:36 11° SE 11:03:02 79° SW 11:09:37 10° NW
Cosmos 1464 Rocket 4.3 10:57:00 10° NNW 11:03:24 76° W 11:09:51 10° S
Okean 3 Rocket 4.2 10:59:56 10° S 11:04:02 34° ESE 11:08:06 10° NE
IDEFIX/ARIANE 42P 3.4 11:08:37 18° SE 11:11:27 28° E 11:15:58 10° NNE
USA 229 DEB 4.3 11:11:37 10° SW 11:18:34 63° WNW 11:25:24 10° NNE
USA 229 4.2 11:11:43 10° SW 11:18:41 63° WNW 11:25:30 10° NNE
YAOGAN 1 2.5 11:14:41 10° SSE 11:19:06 73° ENE 11:23:27 10° N
PKM 4.1 11:17:12 10° WNW 11:20:20 45° SW 11:21:33 26° SSE
Orbus 7S? 3.1 11:18:13 10° SSW 11:20:46 41° SE 11:21:02 40° ESE
PSLV R/B 3.9 11:22:34 10° NW 11:25:54 44° NNE 11:26:39 37° ENE
Cosmos 2219 4.3 11:21:21 10° S 11:25:25 24° SE 11:25:25 24° SE
CORIOLIS 4.2 11:21:11 10° SSE 11:26:35 61° E 11:31:55 10° N
Nadezhda 4 Rocket 4.0 11:20:39 10° S 11:27:05 79° E 11:33:26 10° N
Cosmos 1943 Rocket 2.2 11:24:43 10° N 11:30:19 62° ENE 11:33:43 24° SE
SJ-7 4.3 11:36:15 24° SSE 11:38:48 81° E 11:42:58 10° N
NOSS 3-1 (A) 3.5 11:33:10 10° SSW 11:39:32 53° SE 11:42:28 29° ENE
Cosmos 1707 2.7 11:39:02 10° S 11:43:04 87° W 11:47:01 10° N
Cosmos 1092 Rocket 3.9 11:37:36 10° S 11:44:03 79° E 11:50:23 10° N
PAYLOAD A 4.3 11:40:37 10° S 11:46:08 75° WSW 11:51:29 10° NNW
CZ-4 R/B 3.2 11:46:10 10° S 11:49:47 31° WSW 11:53:19 10° NW
